Wind_Speed
46 47 48 49 50 50 49 48 46 44 42 41 41 41 41 41 40 39 39 40 40 40 40 40 40 40 41 41 42 42 42 42 42 42 42 42 42 42 43 43 42 41 41 42 42 42 42 42 41 42 42 41 40 40 41 41 41 41 41 42 42 43 44 44 43 40 40 42 43 45 48 49 48 49 50 52 53 53 52 52 51 50 49 49 49
48 49 50 51 52 52 51 49 47 45 43 42 41 40 40 40 40 39 38 38 38 39 39 40 40 41 41 42 43 43 43 43 43 43 43 43 43 43 44 44 44 43 43 43 44 45 44 44 43 44 44 43 42 42 43 43 43 43 43 42 43 43 44 44 44 41 41 42 42 44 47 49 49 50 51 52 54 55 54 54 54 53 51 50 50
51 52 53 53 52 51 50 49 48 46 44 42 41 41 40 39 39 39 38 38 38 38 39 39 40 41 41 42 43 44 44 44 44 44 44 44 44 44 45 45 45 45 45 44 44 46 46 45 44 45 47 46 45 45 45 45 45 44 43 43 42 43 44 44 43 42 41 41 42 44 46 48 49 51 52 53 54 56 56 56 57 56 54 53 52
53 53 53 53 51 50 49 48 47 46 44 43 42 41 41 40 40 40 40 40 40 40 40 41 41 42 42 43 44 45 45 45 45 45 45 45 46 46 46 47 46 46 46 46 46 46 46 46 45 46 49 49 47 47 48 48 47 45 43 42 41 42 43 42 42 42 42 41 42 45 46 47 49 51 52 53 55 57 58 58 59 58 57 57 55
54 53 53 51 49 48 47 47 46 46 45 44 43 42 42 41 41 41 42 43 44 45 45 45 45 45 45 45 46 46 47 48 47 47 47 47 47 47 48 49 49 48 48 47 47 47 47 47 46 47 48 49 48 48 48 48 47 46 43 42 41 41 41 41 41 43 43 42 43 45 47 49 50 50 51 53 55 57 59 60 61 61 60 59 57
55 53 52 50 48 47 46 45 45 46 46 45 45 44 44 44 44 44 45 45 46 48 49 49 49 49 48 49 49 50 50 51 50 50 50 50 50 50 50 51 51 51 51 50 49 49 49 49 48 48 48 48 47 47 48 48 47 46 44 42 42 42 41 41 41 42 43 42 43 46 48 50 51 51 52 54 55 56 58 61 63 63 62 61 60
55 55 53 52 50 48 46 45 45 45 45 46 46 46 46 46 46 47 47 48 49 49 50 51 51 51 51 51 51 52 53 53 53 53 54 54 54 53 52 53 53 54 54 53 53 52 52 51 50 49 48 47 46 46 47 47 47 46 45 44 44 44 43 43 43 43 43 42 43 45 47 50 51 51 52 54 55 56 58 61 63 63 63 63 63
56 55 54 54 52 51 49 48 46 45 45 46 46 47 47 48 48 49 49 50 50 51 51 52 52 52 52 52 53 53 54 54 54 54 55 56 56 56 55 55 55 55 55 56 56 55 54 53 52 50 49 48 47 46 47 47 48 47 47 47 47 47 46 46 46 45 44 44 43 44 46 48 50 51 53 54 55 56 59 62 62 62 64 65 65
58 56 55 54 53 53 52 51 50 49 48 48 48 48 49 50 50 51 51 52 52 52 53 53 53 54 54 54 55 55 55 55 54 53 54 56 57 57 57 57 57 57 57 57 57 57 56 55 53 51 50 48 48 48 48 48 49 49 49 50 50 50 49 50 50 49 48 47 45 45 46 47 48 51 52 54 56 58 60 62 61 62 64 65 65
61 59 57 55 55 55 54 54 53 53 52 52 51 51 51 52 52 53 54 54 54 55 55 56 56 56 56 56 56 56 56 54 53 52 52 53 54 56 56 57 58 58 58 58 58 57 56 55 54 53 52 51 50 49 49 50 51 52 52 52 52 52 53 53 53 52 52 51 49 47 48 47 48 50 52 54 56 58 61 62 62 62 63 63 63
63 62 59 58 57 57 57 57 56 56 56 56 56 55 55 55 55 56 57 57 57 58 58 59 59 59 58 58 57 57 56 55 53 53 52 52 53 53 54 55 56 56 56 56 56 56 55 55 55 54 54 53 52 51 51 52 52 53 54 54 55 55 56 56 56 55 56 55 53 51 51 49 49 52 54 55 57 59 61 62 62 62 63 63 63
63 62 61 60 60 59 59 59 60 60 60 60 60 59 59 59 59 59 59 60 60 60 60 60 60 60 59 58 58 57 56 55 55 55 55 55 55 55 55 55 56 56 56 56 55 55 55 56 56 56 56 55 54 54 54 53 54 55 55 56 57 58 58 58 58 58 59 59 57 56 54 53 52 54 56 57 59 61 63 64 64 64 64 64 63
62 62 62 62 62 62 62 62 63 63 63 63 63 63 62 62 62 62 62 61 61 61 61 61 60 59 59 58 58 57 56 56 56 57 57 58 58 58 58 58 57 57 57 57 57 57 57 57 58 58 57 57 57 57 57 56 56 57 57 58 60 60 61 60 60 61 61 62 62 60 58 58 57 57 58 60 61 63 64 65 66 66 66 66 64
62 62 62 63 63 64 64 64 64 64 64 64 65 64 64 64 64 64 64 63 63 62 62 61 60 59 59 59 58 58 57 57 58 58 59 60 60 61 61 61 61 60 60 60 59 59 59 59 60 59 60 60 60 61 61 60 60 60 59 60 61 61 62 63 63 64 64 65 65 64 62 63 63 61 60 62 64 64 66 67 69 70 70 68 66
62 62 62 63 63 63 64 63 63 63 64 64 64 64 64 64 64 64 64 64 64 63 62 61 60 59 59 59 58 58 58 59 60 60 61 62 63 64 64 65 64 64 64 63 63 63 63 63 63 63 63 64 64 64 64 64 64 63 62 62 62 62 64 65 66 66 67 68 69 68 67 67 67 66 64 65 65 65 66 68 70 73 73 71 68
62 62 62 62 62 63 63 63 63 63 63 64 64 64 64 63 64 64 64 63 63 62 61 61 60 59 59 59 59 58 59 60 61 62 63 64 65 65 66 67 67 67 66 66 66 67 67 68 68 68 68 68 68 68 68 67 67 66 66 66 65 65 65 66 67 69 70 71 72 71 71 71 71 70 69 69 68 67 68 69 71 73 74 74 71
63 63 63 63 63 63 63 63 63 63 64 64 64 64 64 64 64 65 64 64 63 62 62 61 61 61 61 61 61 61 61 62 63 64 65 66 67 67 67 68 68 68 68 68 69 69 69 70 70 71 71 71 72 71 70 70 70 70 70 71 71 70 69 68 70 71 72 74 75 75 75 75 75 74 73 72 71 70 71 71 72 73 75 76 74
66 66 65 64 64 63 63 64 64 64 64 64 64 65 65 65 65 66 66 66 65 64 64 63 63 64 64 64 65 65 64 65 66 67 67 68 69 69 70 70 70 70 70 70 70 71 71 71 71 72 71 71 72 72 72 73 73 74 75 76 77 76 74 73 75 75 75 77 78 78 78 78 77 77 76 75 75 75 75 74 73 74 77 77 74
68 68 66 65 64 64 63 63 64 64 64 65 65 66 67 67 67 67 67 67 67 67 66 66 66 66 67 68 68 69 69 69 70 71 71 71 72 72 72 73 73 73 73 73 73 73 74 74 74 74 74 74 74 75 76 78 79 79 80 82 83 82 80 80 81 81 81 82 81 80 81 80 79 79 79 78 78 78 77 76 75 76 76 76 75
70 69 68 67 66 65 65 64 64 64 65 65 66 67 68 69 69 69 69 69 69 69 69 69 69 69 70 71 71 72 73 73 74 75 75 75 76 76 76 76 77 77 77 77 77 77 77 78 78 78 79 79 80 81 82 84 85 85 85 86 87 86 85 87 88 87 87 87 86 85 85 83 83 82 81 80 80 79 79 77 76 76 77 77 77
72 71 70 69 69 68 68 67 67 66 66 67 67 68 69 70 71 72 72 72 72 72 72 72 72 72 73 74 74 75 76 77 78 79 80 81 81 82 82 82 83 83 82 81 82 82 82 82 83 84 85 85 85 86 87 88 89 89 90 90 90 90 90 91 91 92 92 92 92 91 90 88 87 86 85 83 81 79 78 77 77 77 78 79 80
75 74 73 73 73 72 72 72 71 71 71 70 70 70 71 72 73 73 74 75 76 76 76 77 76 76 76 77 78 79 80 81 82 83 84 85 86 87 88 88 89 89 89 88 87 88 88 88 88 89 90 91 91 91 91 92 92 92 92 91 92 92 93 94 94 95 97 97 97 96 94 93 92 90 88 86 83 80 78 78 78 79 80 81 83
78 78 77 77 78 78 77 77 77 77 77 76 76 76 76 76 77 77 78 78 79 80 81 81 82 82 82 82 83 84 85 85 86 87 88 90 91 92 93 93 94 95 95 94 93 93 94 94 94 95 96 96 97 97 97 97 97 97 96 96 95 96 97 98 99 99 99 100 100 99 97 95 94 92 91 88 84 81 79 79 79 81 82 84 86
82 82 82 83 83 84 84 84 84 84 83 83 83 83 83 83 83 84 84 84 84 84 85 86 87 87 87 88 88 89 90 91 92 93 94 95 96 97 98 99 100 100 101 100 99 99 99 99 99 100 100 101 102 102 103 103 104 104 104 104 103 103 103 103 103 102 102 101 101 100 98 96 94 93 91 88 85 83 82 82 82 82 83 85 86
86 87 88 89 89 90 90 91 91 91 91 91 91 91 91 91 90 90 90 90 90 90 90 90 91 92 92 92 92 93 94 95 95 96 97 99 100 101 102 103 104 105 106 106 106 105 105 105 105 105 105 105 106 107 107 107 107 108 108 108 108 108 108 107 107 106 105 103 101 100 98 95 92 90 88 87 86 86 86 84 83 82 83 85 86
90 90 91 92 93 94 94 94 95 95 95 95 94 94 94 94 94 94 94 95 95 95 95 95 95 95 96 96 96 96 97 98 99 100 101 101 102 103 104 105 106 107 109 109 110 110 110 109 109 108 108 108 109 109 109 108 108 108 108 109 110 110 110 110 109 109 108 106 104 101 97 93 90 88 87 87 87 87 86 84 82 81 83 85 86
94 95 95 96 96 96 96 96 95 95 95 95 95 95 95 95 95 95 96 97 97 98 98 99 100 100 101 101 101 102 102 102 104 105 106 106 107 107 107 108 108 109 111 111 112 113 113 112 111 111 110 110 111 111 111 111 111 111 111 111 112 112 112 112 112 111 110 108 105 101 97 93 90 89 88 88 88 87 85 83 82 81 82 84 85
98 98 99 99 98 98 98 98 98 98 98 99 99 99 99 99 99 98 98 99 100 101 102 103 104 105 106 106 106 107 107 108 108 110 111 111 111 112 111 111 112 112 113 113 114 115 115 114 113 113 113 113 113 113 113 113 113 113 113 113 114 114 114 114 114 113 111 108 104 100 96 94 92 91 89 89 88 85 82 81 81 81 82 84 85
101 101 102 102 102 103 103 103 104 104 104 104 104 105 104 104 104 104 103 103 104 105 106 107 108 110 111 112 113 113 114 114 114 114 115 115 116 116 116 116 116 117 117 117 118 119 119 118 117 117 116 116 116 116 115 115 115 114 114 114 114 114 114 114 114 112 110 106 102 98 95 93 91 90 89 87 85 82 80 80 81 82 83 85 85
103 104 105 106 106 107 107 108 109 109 109 109 109 109 109 109 109 109 109 109 108 109 110 112 113 114 115 116 117 118 119 119 119 119 119 120 121 121 121 121 121 121 121 121 122 123 123 123 122 121 120 119 119 119 118 117 116 115 114 113 112 113 113 113 112 110 107 104 100 96 93 91 89 88 87 86 84 82 82 83 83 83 85 86 85
107 107 108 109 110 110 111 111 112 112 112 113 113 114 113 113 112 113 114 114 114 114 114 115 116 118 120 121 122 122 122 123 123 123 124 124 124 125 125 125 124 124 124 124 125 125 125 125 125 124 123 122 121 121 120 119 118 117 115 113 111 110 109 109 107 105 103 101 98 95 92 90 88 88 87 87 86 84 84 85 85 85 85 85 84
110 111 112 112 113 113 113 114 114 114 114 114 115 116 116 116 115 114 114 116 118 119 119 119 120 121 123 125 126 126 126 125 125 125 125 126 126 126 126 125 124 124 123 124 125 125 126 126 126 126 125 124 123 122 121 120 119 118 117 116 113 110 108 106 104 101 99 97 95 93 92 91 90 89 89 88 88 86 84 85 86 85 84 83 82
112 113 113 114 114 114 114 114 114 115 115 116 116 117 118 120 120 119 118 119 120 122 123 123 124 124 125 125 126 126 127 126 126 125 124 124 125 125 125 125 124 123 123 124 125 126 126 126 126 127 126 126 125 124 123 122 121 120 118 117 115 114 111 109 106 103 101 98 95 93 92 91 91 90 87 85 84 83 82 84 85 84 83 82 81
112 113 114 114 115 115 115 116 116 117 118 119 120 121 122 123 125 126 126 125 125 125 125 125 125 126 126 126 126 126 127 127 127 127 126 126 126 126 126 126 125 124 124 126 127 128 129 128 128 128 127 127 126 126 125 124 123 121 120 118 117 116 114 112 110 109 107 104 101 98 95 92 90 89 87 84 82 80 80 81 83 83 82 82 81
114 115 116 116 117 118 119 119 121 122 123 124 125 125 126 127 128 128 129 129 129 128 127 126 125 125 126 128 129 129 130 130 130 130 130 131 131 131 130 130 129 128 128 129 131 132 132 132 132 131 130 129 128 127 127 126 124 123 123 122 121 119 116 114 113 112 112 110 108 104 100 97 94 91 89 87 84 82 80 79 80 81 82 83 82
117 117 118 119 121 122 123 124 125 126 126 127 127 127 128 128 128 128 129 129 129 129 128 127 126 125 126 128 131 132 133 134 134 134 134 135 136 137 137 137 136 136 135 134 135 135 135 135 135 134 134 133 132 130 129 128 127 126 125 125 123 121 119 116 114 113 113 112 111 109 105 101 98 95 93 91 88 84 81 79 79 80 80 82 83
120 121 122 123 124 125 126 126 126 126 127 127 128 128 129 129 130 130 131 131 132 132 131 131 130 130 130 131 133 135 136 138 139 139 140 141 142 142 143 143 143 142 142 141 140 140 139 139 138 138 138 137 136 134 133 131 129 128 127 125 123 121 119 117 115 113 112 111 110 109 107 105 101 98 95 92 90 87 85 83 82 82 82 82 82
122 122 123 124 124 125 125 126 127 127 128 129 130 131 131 132 132 133 134 135 135 136 136 136 136 136 136 137 138 140 141 143 144 145 146 147 146 145 145 144 143 143 142 141 140 138 137 136 135 134 134 134 133 133 132 131 130 129 128 127 126 124 122 120 117 116 114 112 110 109 109 109 108 105 101 98 94 91 89 88 87 86 84 84 84
121 121 122 124 125 126 127 128 129 130 130 131 132 133 134 134 135 135 136 137 138 139 140 141 142 143 144 145 147 147 147 146 145 144 144 143 141 138 136 134 133 131 130 129 128 127 126 124 122 121 121 121 122 123 123 123 123 123 122 122 122 122 121 120 119 117 116 114 112 110 110 110 109 109 106 104 101 98 95 93 91 90 89 87 87
123 124 125 126 127 128 129 130 131 133 134 134 135 136 136 136 137 138 139 141 143 144 146 147 147 147 146 145 143 142 140 137 135 133 131 129 127 125 124 122 121 120 119 119 119 118 116 115 113 112 112 112 113 113 113 113 113 113 112 112 112 112 112 113 113 113 113 112 110 109 109 108 107 107 106 104 103 102 100 97 95 93 92 91 90
125 125 126 128 129 130 131 132 133 134 135 136 137 138 140 141 142 144 145 145 145 145 144 142 139 136 133 130 128 126 124 123 121 120 119 118 117 116 115 114 113 112 111 111 110 110 109 108 107 106 105 105 105 105 104 105 106 107 106 106 105 105 105 104 105 105 106 107 106 106 106 106 105 105 105 104 104 103 102 100 97 95 92 91 91
126 127 128 129 130 130 131 133 134 136 138 139 141 143 143 143 142 141 139 137 134 131 129 126 124 122 119 117 115 114 113 112 111 111 110 109 108 107 106 106 105 103 102 101 101 101 101 100 99 98 97 97 96 96 96 97 97 98 99 100 100 101 100 99 98 97 98 100 101 102 103 103 103 103 103 104 105 105 104 102 100 97 93 91 90
127 128 128 130 131 133 135 137 138 139 139 139 137 135 133 131 129 127 124 122 120 118 116 115 113 112 110 108 106 105 104 103 102 102 101 100 99 97 96 96 95 94 93 93 92 92 92 92 91 91 90 89 89 88 88 88 88 89 91 92 94 95 95 94 92 91 91 93 95 97 99 100 100 101 102 103 104 105 104 103 101 98 96 93 90
130 132 134 135 136 136 136 135 133 131 129 126 123 121 120 118 116 114 113 111 110 108 107 105 104 102 101 99 98 97 96 95 94 93 92 91 90 89 88 87 86 86 85 85 85 85 86 86 86 85 84 83 82 82 82 82 82 82 83 84 85 87 87 87 87 87 87 88 90 91 93 95 96 97 98 100 101 102 103 102 101 99 98 96 93
135 135 134 132 130 127 125 122 120 119 117 115 113 111 109 108 106 104 102 100 99 98 97 96 95 94 92 91 90 88 87 87 86 86 85 84 83 82 80 79 78 77 77 77 77 77 78 78 78 78 76 75 75 74 74 74 75 75 76 77 78 79 79 79 80 81 82 83 85 86 88 90 93 94 94 96 97 98 99 99 99 99 98 96 94
127 125 123 121 119 117 115 114 112 110 108 106 103 101 99 97 95 93 92 91 90 89 88 88 87 86 85 84 83 81 80 79 78 78 77 76 74 73 71 70 68 67 67 67 67 67 67 68 69 69 68 67 66 65 65 65 66 66 67 69 70 71 71 72 73 74 75 77 78 80 82 85 88 89 90 92 93 94 95 95 96 97 97 96 95
117 116 115 113 112 110 108 106 103 101 98 95 93 91 89 87 85 84 84 84 84 83 83 82 81 80 78 77 75 74 72 71 70 69 67 66 64 63 61 59 57 56 55 56 56 57 58 58 59 59 59 58 58 57 57 57 57 57 58 59 61 62 63 64 65 66 67 68 71 73 76 79 83 86 87 88 89 90 91 91 91 93 95 95 94
111 110 108 106 104 101 98 95 92 89 87 85 83 82 81 79 79 78 78 79 79 78 77 76 75 73 72 70 68 67 65 63 61 59 58 56 55 54 52 51 50 49 48 48 48 49 49 50 51 52 52 52 51 50 50 50 50 50 50 51 52 53 54 55 56 58 59 61 63 65 68 72 76 81 84 86 85 84 86 87 87 88 90 91 90
105 102 99 95 92 89 86 84 82 81 79 78 76 76 75 74 74 75 74 74 74 73 72 70 69 67 65 63 60 58 56 54 52 51 49 48 48 47 46 46 45 44 43 42 42 42 43 45 46 46 46 45 45 45 44 44 44 44 44 44 44 44 45 46 47 48 50 52 54 57 59 63 68 74 79 83 83 81 80 82 84 84 85 86 83
93 90 86 83 81 79 78 77 76 75 74 72 71 71 71 71 71 71 70 69 68 67 66 64 62 60 57 55 53 51 49 47 46 44 44 43 44 44 44 44 44 43 42 41 39 40 41 42 41 40 39 39 39 39 39 38 38 38 38 37 37 36 37 37 38 39 40 42 45 47 50 54 59 65 70 76 80 79 75 75 79 81 82 82 80
80 78 76 75 74 74 73 72 71 69 68 67 67 67 68 68 67 66 65 63 62 61 59 58 56 54 52 49 47 45 44 43 43 43 43 43 44 44 44 44 43 42 42 41 40 40 40 40 38 36 35 35 35 35 34 33 32 31 30 30 29 28 28 28 28 28 29 31 34 37 40 44 49 55 61 66 72 76 73 69 70 74 77 78 77
Wind_Direction
314 313 313 312 311 311 310 309 309 308 307 305 304 303 301 300 300 301 300 300 300 300 300 300 300 299 298 297 296 295 294 292 292 291 291 291 291 291 291 291 291 290 289 288 286 284 283 283 283 283 282 282 283 285 286 287 288 288 288 289 290 291 291 291 292 294 295 294 295 297 297 298 299 299 299 299 299 300 302 302 301 300 300 299 299
312 311 310 309 309 308 308 307 306 306 305 304 303 301 300 299 299 299 299 298 299 299 299 299 298 297 296 296 295 294 293 293 292 291 290 290 290 290 290 289 289 289 288 287 286 284 282 282 282 282 281 281 281 282 283 284 285 286 286 287 289 290 291 292 293 295 295 295 295 296 297 298 300 300 299 298 299 300 300 300 300 299 299 297 297
309 309 309 309 308 307 306 305 305 304 303 302 300 299 297 297 297 297 297 297 296 296 296 296 295 294 293 292 292 292 292 291 290 289 289 288 288 288 287 287 287 286 286 286 284 283 283 282 282 281 281 280 281 282 282 283 284 284 285 286 288 289 290 291 293 294 295 295 296 297 298 299 300 300 300 300 300 300 300 299 299 299 298 297 296
307 308 308 308 308 307 305 304 303 301 300 299 297 296 295 294 294 295 295 295 295 294 293 292 291 290 290 290 289 290 290 289 288 287 286 286 285 285 285 284 284 283 284 284 283 282 282 282 282 281 280 280 281 281 282 282 282 283 284 285 286 287 288 290 292 293 295 297 297 298 299 300 299 300 301 301 301 300 300 299 298 298 297 296 297
306 307 307 308 307 306 305 304 303 301 299 297 295 293 292 291 291 292 293 294 295 295 294 293 292 291 290 290 289 289 288 288 287 286 285 283 282 282 281 281 281 281 281 281 282 282 282 282 282 281 280 280 280 280 280 281 281 282 282 283 284 284 285 288 291 292 295 298 299 298 299 300 300 301 302 301 300 300 299 299 298 297 297 297 297
305 306 306 306 305 305 304 304 303 301 299 296 294 291 290 289 290 291 292 293 293 294 294 293 293 293 292 291 291 290 289 288 287 286 285 283 282 280 279 279 280 280 281 281 281 282 282 283 282 281 281 280 280 279 279 279 280 281 281 281 281 282 283 286 289 291 294 298 300 300 300 300 301 302 302 301 300 300 299 298 297 297 298 297 296
305 305 305 304 304 304 303 303 302 300 299 296 292 290 288 288 289 290 291 292 292 292 293 293 293 293 292 291 290 290 289 288 287 287 286 284 283 282 281 281 281 281 282 282 282 282 283 283 282 282 281 280 279 278 278 278 279 280 280 280 280 280 282 285 287 289 294 298 300 302 301 300 300 301 300 300 300 300 298 296 296 297 297 297 295
304 303 303 303 302 302 302 302 301 300 298 296 292 289 287 286 286 288 289 290 290 291 292 292 293 293 292 291 290 289 288 287 286 285 285 284 284 283 283 283 282 282 282 283 283 283 284 284 283 282 281 280 279 278 278 278 278 278 279 280 279 280 282 284 286 289 293 297 301 303 303 302 301 300 299 299 299 299 297 296 298 298 296 296 296
303 302 301 300 300 300 300 300 299 298 298 296 293 290 287 285 284 285 287 288 289 290 291 292 292 292 292 291 291 289 288 286 285 283 282 282 282 282 283 283 283 283 283 283 284 284 284 284 283 282 280 279 279 279 278 278 277 277 278 279 280 280 282 284 285 288 292 295 299 303 304 305 304 300 298 298 297 296 296 297 298 297 295 296 296
303 302 300 299 298 298 298 298 298 297 297 296 295 293 290 287 285 284 285 286 287 289 290 291 291 291 291 291 291 290 289 288 285 283 282 280 280 281 282 282 283 283 283 283 283 283 283 282 282 281 280 279 278 278 278 277 277 277 278 279 279 280 281 283 285 288 291 293 297 300 303 307 307 301 298 297 295 294 295 295 296 296 296 296 296
303 301 300 299 297 297 296 297 297 297 296 296 295 294 293 291 289 287 286 286 287 288 289 290 290 290 290 290 290 289 289 288 286 284 283 281 281 281 281 282 282 282 281 281 280 280 280 280 279 278 278 278 277 277 276 277 277 277 277 278 278 278 280 282 285 287 289 292 295 297 300 305 306 302 300 298 295 294 294 294 295 296 295 295 295
301 300 299 298 297 296 296 296 296 296 296 295 294 294 293 292 291 290 289 288 288 288 288 289 289 289 289 289 289 288 288 287 286 285 284 284 283 282 282 282 282 281 281 280 279 278 278 277 277 277 276 276 276 276 276 276 276 276 276 276 277 277 278 281 283 285 288 291 293 295 298 301 301 301 301 298 296 296 297 297 296 295 294 295 295
300 298 298 297 296 296 296 295 295 295 294 294 293 293 292 292 291 291 290 290 289 289 288 288 288 287 287 287 287 287 286 285 285 285 285 285 285 284 283 283 282 281 280 279 278 278 277 276 275 275 275 275 275 275 275 275 275 275 275 276 277 278 279 280 282 285 287 290 292 294 296 297 297 299 298 296 296 298 301 300 299 296 295 295 295
298 297 297 296 296 295 295 294 294 294 293 293 292 291 291 290 290 290 290 290 290 289 289 288 287 287 286 286 286 285 284 284 284 284 285 285 285 285 284 284 283 282 281 280 278 277 277 276 275 274 274 275 275 276 276 276 275 275 275 276 278 279 280 281 283 285 287 289 291 293 296 296 295 296 295 293 295 298 301 302 300 298 297 296 295
297 297 296 296 295 295 294 294 293 293 292 291 290 289 289 288 288 289 289 289 289 289 288 288 287 286 285 285 285 284 283 283 283 284 284 284 284 284 284 284 284 283 282 281 280 278 277 276 276 276 276 276 277 278 278 277 276 275 275 277 279 280 281 282 284 286 287 289 291 293 294 294 294 293 293 293 294 297 299 300 301 300 299 298 296
297 297 296 296 295 295 294 294 293 292 291 290 289 288 287 286 286 286 287 287 287 287 287 286 286 285 284 284 283 283 282 282 283 283 283 283 283 283 283 283 283 283 283 282 281 280 279 278 278 278 278 278 279 280 279 278 276 275 275 277 279 280 281 282 284 285 287 289 290 292 292 292 292 292 292 292 293 295 296 298 300 300 299 297 295
298 297 296 296 296 295 295 294 293 293 291 290 288 287 285 285 284 284 284 284 284 284 284 284 284 284 284 283 283 283 282 282 282 283 283 283 283 282 282 282 282 283 282 282 282 281 281 280 280 279 279 279 279 279 278 278 277 276 276 277 278 279 280 282 283 285 286 287 288 289 289 290 291 291 291 291 293 293 293 296 299 299 297 295 294
298 298 297 297 296 296 295 294 294 293 292 290 289 287 286 285 284 283 283 283 282 282 281 282 282 282 283 283 283 283 283 282 283 283 283 283 282 282 282 282 282 282 281 281 281 281 281 280 280 280 279 279 278 278 277 277 277 277 278 278 279 279 281 282 282 283 284 284 285 287 287 288 289 289 289 290 291 291 293 296 297 296 295 294 293
297 297 297 297 296 296 295 295 294 293 292 291 289 288 287 286 285 284 283 282 282 281 281 281 281 281 282 282 283 283 283 283 283 283 283 283 283 282 282 282 282 281 281 281 281 280 280 280 280 279 279 278 278 277 277 277 278 278 278 279 279 280 281 282 282 282 282 283 284 285 286 286 287 287 288 288 289 290 292 294 294 293 293 292 290
297 296 296 296 295 295 295 294 294 293 291 290 289 288 287 286 285 284 283 282 281 280 280 280 281 281 282 282 283 283 284 284 284 284 284 284 284 283 283 282 282 282 281 281 281 281 280 280 280 280 279 279 278 278 278 278 278 278 279 279 280 280 280 280 281 282 282 283 283 284 285 286 286 286 287 287 288 289 290 291 291 290 290 289 287
295 295 294 294 294 294 293 293 293 292 291 290 289 288 287 286 285 284 283 282 281 280 280 280 280 281 281 281 282 282 283 283 283 284 284 284 284 284 284 283 283 282 282 282 282 281 281 281 281 281 280 280 280 279 279 279 279 279 279 280 280 279 279 279 280 281 282 283 283 284 284 285 285 285 285 285 286 287 288 288 288 288 287 286 285
294 293 293 292 292 292 292 291 291 290 290 289 288 287 286 286 285 284 283 282 281 280 279 279 279 280 280 281 281 281 281 282 282 282 283 283 284 284 284 284 283 283 282 282 282 282 282 281 281 281 281 281 281 280 280 280 280 280 280 280 280 279 279 279 279 280 281 282 283 283 283 284 284 284 284 284 284 284 285 285 285 285 285 285 284
293 293 292 292 292 291 291 291 290 290 289 288 288 287 286 286 285 284 283 282 281 280 279 279 279 279 279 280 281 281 281 282 282 282 282 283 283 283 283 283 283 283 283 282 281 281 281 281 281 281 281 281 281 281 281 282 282 282 281 281 280 279 279 279 279 280 281 281 282 282 283 283 284 283 283 282 282 282 282 282 283 283 284 284 284
293 293 293 292 292 292 292 292 291 291 290 290 289 288 288 287 286 285 284 283 282 281 281 280 280 280 280 280 281 282 282 283 283 283 283 283 283 283 283 283 282 282 282 281 281 280 280 280 280 280 280 281 281 281 281 282 282 282 282 281 281 280 279 279 279 280 280 280 281 282 282 283 283 282 282 281 281 281 281 282 283 283 283 283 281
294 293 293 293 293 293 293 293 292 292 292 291 290 290 289 288 287 286 285 284 283 283 282 281 281 281 281 281 281 281 282 282 283 283 283 283 282 283 283 282 282 282 282 281 281 280 279 279 279 279 279 279 280 280 280 281 281 281 281 281 281 280 280 280 279 279 280 280 281 282 283 283 282 281 280 280 280 281 282 282 282 281 281 279 277
292 292 292 292 292 292 292 292 291 291 291 291 290 290 289 288 288 287 286 285 284 284 283 283 282 282 282 281 281 281 281 282 282 282 282 282 282 282 282 282 283 283 282 282 282 281 280 279 279 279 278 278 279 279 279 279 280 280 280 280 280 280 280 280 280 280 280 280 281 282 283 282 280 279 279 280 280 281 281 281 279 278 277 276 274
291 291 291 292 292 291 291 291 291 291 291 290 290 290 289 289 288 288 287 286 285 285 284 284 283 283 282 281 281 281 281 281 282 282 282 282 282 282 282 282 282 282 282 282 282 282 281 281 280 280 279 279 279 279 280 280 280 280 281 281 281 281 281 281 281 280 281 281 282 282 282 281 280 279 279 280 280 280 280 278 277 276 274 272 270
291 291 292 292 292 292 293 293 292 292 292 292 292 292 291 291 291 290 289 288 287 286 286 285 285 284 284 283 283 283 283 283 284 284 284 284 284 284 284 284 284 283 283 283 283 283 282 282 281 281 281 281 281 281 281 282 282 282 282 282 282 282 281 281 281 280 280 280 280 281 281 280 279 279 279 278 278 278 278 277 275 274 272 270 268
293 293 294 294 294 294 295 295 295 295 295 294 294 294 294 294 293 293 292 292 291 291 290 289 288 288 288 288 287 286 285 284 284 285 285 285 285 285 285 284 284 284 284 284 284 283 283 283 282 282 282 281 281 281 281 281 281 282 282 282 282 282 281 280 280 279 278 278 277 278 278 278 277 277 277 277 277 277 276 275 274 273 270 268 267
295 295 296 296 296 295 295 295 294 294 294 293 292 292 291 292 292 292 291 291 290 291 291 291 290 289 289 288 287 287 286 285 284 283 283 284 284 285 285 284 284 283 283 282 282 282 282 281 280 280 279 279 278 278 277 277 278 278 279 280 280 280 279 279 278 277 276 275 274 275 275 275 275 275 275 276 276 277 276 275 274 272 270 267 266
295 295 295 295 294 294 293 293 292 292 291 291 291 290 289 288 288 289 290 290 289 289 289 290 291 290 290 289 289 288 288 287 286 286 285 284 284 284 285 285 284 284 283 283 282 282 282 281 281 280 279 278 277 277 276 275 275 274 275 275 276 276 276 276 275 274 273 272 272 272 272 272 272 273 273 275 276 277 276 274 272 272 270 268 266
295 294 294 293 293 292 292 291 291 290 290 290 289 289 288 287 286 286 287 288 289 289 288 288 288 289 289 290 290 289 288 287 287 286 286 286 285 285 284 284 284 285 285 285 284 284 284 283 283 282 282 281 280 279 278 278 276 275 274 273 272 272 272 273 272 271 270 270 270 270 269 269 270 271 272 273 274 275 274 272 271 271 271 268 266
294 294 293 293 292 292 291 291 291 291 290 290 290 290 290 290 289 288 287 287 288 288 289 289 289 288 288 288 289 289 288 288 287 286 286 286 286 285 285 285 285 285 285 285 285 285 284 284 284 283 283 283 282 281 281 280 279 278 277 276 274 272 271 271 271 270 269 268 268 268 267 268 268 269 269 270 271 272 273 272 271 271 270 268 266
294 294 294 294 294 294 294 294 294 294 294 294 294 294 293 293 293 292 291 290 290 289 289 290 290 290 289 289 288 288 288 288 288 288 287 287 286 286 285 285 284 284 284 284 284 284 284 284 284 283 283 282 282 281 281 280 280 279 279 278 277 275 274 272 271 271 271 269 267 266 266 267 268 268 268 269 269 270 272 272 271 270 270 268 265
296 296 296 296 296 296 296 296 296 296 296 295 295 295 294 294 294 293 293 292 291 291 290 290 290 290 289 289 289 288 288 288 288 288 288 288 287 287 286 285 284 284 283 283 284 284 284 283 283 282 282 282 281 281 280 280 279 279 278 278 277 277 277 276 275 274 275 274 271 269 267 266 266 266 267 268 268 269 269 270 269 269 270 268 265
297 297 297 297 297 296 296 296 296 296 296 295 295 294 294 293 293 292 291 291 290 290 290 290 289 289 288 288 288 288 289 288 288 288 288 288 288 287 287 287 286 285 284 283 283 282 282 282 282 282 281 281 281 280 280 280 279 279 278 278 278 277 277 277 276 276 275 275 274 272 270 268 266 265 265 266 266 266 267 267 266 267 268 267 265
297 297 297 296 296 296 296 296 295 295 295 294 294 293 293 293 292 292 291 291 291 290 290 290 290 289 289 289 288 288 288 288 289 289 289 288 288 288 288 288 287 286 286 284 283 283 282 282 282 282 281 281 281 280 279 279 278 278 278 277 277 277 276 275 275 274 274 273 273 273 271 269 268 267 266 266 265 265 265 265 265 265 265 266 264
297 296 295 295 295 295 294 294 294 294 294 293 293 293 293 293 292 292 292 292 292 292 291 291 291 290 290 289 289 289 288 289 289 289 289 289 289 289 288 288 288 287 287 286 285 284 283 283 282 282 281 281 280 279 278 277 277 276 276 276 275 275 274 274 274 273 272 272 271 271 270 268 268 267 267 266 266 265 265 265 264 264 264 264 263
296 295 294 294 293 293 293 293 293 293 293 293 293 293 293 293 293 292 292 292 292 292 292 292 292 292 292 292 291 291 291 291 290 290 290 290 290 290 290 289 288 288 287 287 286 285 285 284 283 282 281 280 279 278 278 277 276 275 275 274 273 272 272 272 271 270 270 269 269 268 267 267 266 266 266 265 265 265 264 263 262 262 262 262 261
296 295 294 294 293 293 293 293 293 293 293 293 293 294 293 293 293 293 293 293 294 294 294 294 294 294 294 294 294 294 293 293 293 292 292 292 291 291 291 290 289 289 288 287 286 286 285 284 283 282 281 280 279 278 277 277 276 275 274 272 271 270 269 268 267 266 265 265 264 264 263 263 263 263 262 262 261 262 261 260 258 257 258 259 259
294 294 293 293 292 292 293 293 293 294 294 294 294 295 295 295 295 295 295 295 295 295 295 295 296 296 296 296 296 295 295 295 294 294 293 293 292 292 291 291 290 290 289 288 288 287 286 285 284 283 282 280 279 278 277 276 275 274 273 272 271 269 268 266 264 263 262 261 260 259 259 259 258 258 257 257 257 257 257 256 253 250 250 252 254
293 293 292 292 292 293 293 294 294 294 295 295 295 296 296 296 296 296 296 297 297 297 297 297 297 297 297 297 296 296 296 296 295 295 294 294 293 293 292 292 292 292 291 291 290 289 288 287 285 284 283 281 280 279 277 276 275 274 273 272 271 269 268 266 264 262 260 258 256 255 254 254 253 253 253 253 253 253 253 253 251 247 244 245 247
293 293 293 294 294 294 295 295 295 296 296 296 297 297 297 298 298 298 298 298 298 298 298 298 298 298 298 298 298 298 297 297 297 297 296 296 295 295 294 294 293 293 293 292 291 290 289 288 287 286 284 283 282 280 279 277 275 274 273 272 271 270 268 267 264 261 258 256 253 252 251 250 250 250 250 250 250 250 250 250 250 247 244 242 243
294 295 295 296 296 297 297 297 298 298 298 299 299 299 300 300 300 300 300 300 300 300 300 300 300 300 300 300 300 300 299 299 299 299 298 298 297 297 296 295 295 294 294 293 292 291 291 290 288 287 286 285 284 282 281 279 277 275 274 272 270 269 268 267 265 262 259 256 253 250 249 248 247 247 248 248 248 248 247 247 248 248 246 244 243
296 297 297 298 299 299 299 300 300 300 301 301 301 301 301 302 302 302 302 302 302 302 302 302 302 302 302 302 302 302 302 301 301 301 300 300 299 299 298 298 297 296 295 294 293 292 292 291 290 289 288 287 286 285 283 282 280 278 276 274 272 270 268 267 265 263 260 257 254 251 248 246 244 244 245 246 246 247 246 245 245 245 246 245 244
299 300 300 301 301 301 302 302 302 302 302 303 303 303 303 304 304 304 304 304 304 304 304 304 304 304 304 304 304 304 304 303 303 302 302 302 302 301 301 300 300 299 298 296 295 294 293 292 292 291 290 289 288 287 285 284 282 280 278 277 275 273 270 268 265 263 261 259 256 252 248 245 242 241 241 242 244 244 244 244 243 243 244 244 243
301 302 302 302 302 303 303 303 304 304 304 305 305 306 306 306 306 306 306 306 306 306 306 306 306 306 306 306 306 306 306 306 305 305 305 305 305 305 304 304 303 302 301 299 298 297 296 295 295 294 294 293 292 290 288 286 284 282 280 278 276 274 272 270 267 265 262 260 257 253 249 246 242 238 236 237 240 242 243 243 242 242 242 243 243
303 303 303 303 304 304 305 305 306 306 307 307 308 308 308 308 308 307 307 307 308 308 308 308 308 308 308 308 309 309 309 309 309 309 309 309 308 308 308 307 307 306 305 304 303 302 301 300 299 299 298 298 297 295 294 291 289 286 284 281 279 277 274 272 269 267 264 261 258 255 251 246 243 239 235 233 235 239 241 241 241 241 241 243 244
304 304 305 305 305 306 307 307 308 308 309 309 309 309 309 309 309 309 310 310 310 310 310 310 310 310 310 311 311 311 312 312 312 313 312 312 311 311 311 311 312 311 309 308 307 306 306 306 305 305 305 304 303 301 299 297 294 291 289 286 283 280 277 274 271 268 265 262 260 257 253 248 244 240 236 232 231 234 238 239 240 239 240 241 243
305 306 307 307 308 308 309 309 310 310 310 310 310 310 311 311 312 312 312 312 312 312 312 312 312 312 313 314 314 315 315 315 316 316 316 315 314 314 313 314 314 314 313 311 310 310 310 310 310 310 310 309 308 307 305 303 300 297 295 292 289 286 283 279 276 272 268 264 260 257 254 250 244 241 238 233 229 230 234 237 239 239 239 240 241
308 308 309 310 310 310 311 311 311 311 311 312 312 313 313 313 314 314 314 314 314 314 314 314 315 316 317 318 318 319 319 319 320 320 319 318 317 316 315 314 314 314 313 312 312 312 313 313 313 312 313 314 314 314 313 311 308 305 302 300 298 295 291 287 283 278 273 268 263 259 255 251 246 241 238 234 229 227 229 234 237 238 238 238 239
Height
5753 5751 5748 5745 5742 5739 5737 5735 5734 5733 5731 5730 5728 5727 5725 5723 5722 5720 5719 5717 5716 5714 5713 5711 5710 5709 5708 5707 5705 5704 5702 5701 5700 5699 5698 5697 5695 5694 5692 5690 5690 5689 5687 5686 5684 5683 5682 5681 5680 5678 5676 5676 5675 5674 5672 5670 5668 5666 5664 5662 5661 5659 5656 5655 5655 5656 5655 5652 5649 5646 5642 5640 5640 5639 5637 5634 5631 5630 5629 5628 5626 5625 5624 5622 5620
5749 5746 5743 5741 5738 5735 5732 5730 5728 5727 5725 5724 5723 5721 5719 5718 5716 5715 5714 5712 5711 5709 5708 5707 5705 5704 5702 5701 5699 5698 5697 5695 5694 5693 5692 5691 5689 5688 5686 5684 5683 5682 5680 5679 5677 5675 5674 5674 5674 5671 5669 5669 5669 5667 5665 5663 5661 5660 5658 5656 5655 5653 5650 5648 5647 5648 5648 5646 5644 5642 5638 5635 5633 5632 5630 5628 5625 5623 5622 5620 5618 5617 5617 5615 5613
5743 5741 5738 5736 5733 5730 5728 5725 5723 5721 5720 5718 5717 5715 5713 5712 5710 5709 5708 5707 5705 5704 5702 5701 5699 5698 5696 5695 5693 5691 5690 5689 5688 5686 5685 5684 5682 5681 5679 5677 5676 5675 5673 5672 5670 5668 5667 5667 5666 5664 5662 5661 5661 5660 5658 5656 5654 5653 5652 5650 5648 5647 5644 5642 5641 5640 5641 5640 5638 5636 5634 5631 5628 5625 5623 5622 5619 5616 5615 5613 5611 5609 5609 5607 5606
5738 5735 5732 5730 5728 5725 5722 5720 5718 5716 5714 5712 5711 5709 5707 5706 5704 5703 5702 5700 5699 5697 5696 5695 5693 5692 5690 5688 5687 5685 5684 5682 5681 5680 5678 5677 5675 5674 5672 5670 5669 5668 5666 5665 5663 5661 5660 5659 5659 5657 5654 5653 5653 5652 5650 5648 5646 5645 5644 5643 5642 5640 5637 5636 5635 5633 5632 5633 5632 5629 5627 5625 5623 5620 5618 5616 5612 5609 5607 5605 5603 5602 5601 5599 5598
5732 5729 5727 5725 5722 5720 5717 5715 5712 5710 5708 5706 5705 5703 5702 5700 5699 5697 5696 5694 5693 5691 5689 5688 5686 5685 5684 5682 5680 5679 5677 5675 5674 5673 5671 5669 5668 5666 5664 5662 5661 5660 5659 5658 5656 5654 5653 5652 5652 5650 5647 5646 5646 5644 5642 5640 5638 5637 5637 5636 5634 5632 5630 5629 5628 5625 5624 5625 5624 5622 5620 5618 5616 5615 5612 5610 5607 5603 5600 5597 5595 5594 5593 5592 5591
5726 5724 5721 5719 5717 5714 5712 5709 5707 5704 5703 5701 5699 5697 5696 5694 5693 5691 5690 5688 5687 5685 5683 5681 5679 5678 5677 5675 5674 5672 5670 5668 5667 5666 5664 5662 5660 5658 5657 5655 5653 5652 5651 5650 5649 5647 5646 5645 5644 5642 5640 5639 5638 5636 5634 5632 5630 5629 5628 5628 5626 5624 5623 5622 5620 5618 5616 5616 5616 5614 5612 5610 5609 5608 5605 5602 5600 5598 5595 5591 5587 5585 5585 5584 5583
5720 5717 5715 5713 5710 5708 5706 5704 5701 5699 5697 5695 5693 5691 5690 5688 5687 5685 5684 5682 5680 5679 5677 5675 5673 5672 5670 5669 5667 5665 5663 5661 5660 5658 5656 5654 5652 5651 5649 5647 5646 5644 5643 5642 5641 5640 5638 5637 5636 5634 5633 5631 5630 5629 5626 5624 5623 5621 5620 5619 5618 5615 5614 5614 5612 5610 5609 5608 5607 5606 5605 5602 5601 5601 5598 5594 5592 5591 5588 5584 5581 5579 5577 5575 5574
5716 5712 5709 5707 5704 5702 5700 5698 5695 5693 5691 5689 5687 5685 5684 5682 5680 5679 5677 5675 5673 5672 5670 5668 5667 5665 5663 5661 5660 5658 5656 5655 5653 5651 5649 5647 5644 5643 5641 5639 5638 5636 5635 5634 5633 5632 5631 5630 5629 5627 5625 5624 5622 5621 5619 5617 5615 5614 5613 5611 5609 5607 5606 5604 5603 5602 5601 5600 5599 5599 5597 5595 5594 5593 5590 5587 5585 5583 5579 5575 5575 5574 5570 5567 5567
5710 5707 5704 5701 5699 5696 5694 5691 5689 5687 5685 5683 5681 5679 5677 5675 5674 5672 5670 5668 5666 5665 5663 5661 5659 5657 5655 5653 5652 5650 5648 5647 5645 5644 5642 5640 5637 5635 5634 5632 5630 5629 5628 5627 5625 5624 5623 5622 5620 5619 5618 5616 5614 5612 5611 5609 5607 5605 5605 5603 5601 5599 5597 5595 5594 5593 5592 5591 5591 5590 5588 5587 5586 5584 5582 5579 5577 5574 5570 5568 5568 5567 5563 5561 5561
5704 5701 5698 5696 5693 5690 5688 5685 5683 5681 5679 5677 5675 5673 5671 5669 5667 5665 5663 5661 5659 5657 5656 5653 5651 5650 5648 5646 5643 5642 5640 5638 5636 5635 5634 5632 5630 5628 5627 5625 5624 5622 5621 5620 5618 5617 5615 5613 5612 5611 5609 5607 5606 5604 5603 5600 5598 5597 5596 5594 5592 5590 5588 5586 5585 5584 5583 5582 5583 5582 5579 5579 5579 5575 5573 5571 5568 5565 5562 5560 5559 5558 5555 5554 5554
5696 5694 5691 5689 5686 5684 5682 5679 5677 5674 5672 5670 5668 5666 5664 5662 5660 5658 5656 5654 5652 5650 5648 5646 5644 5642 5640 5638 5636 5633 5631 5629 5627 5626 5625 5623 5623 5622 5620 5619 5617 5616 5615 5613 5612 5610 5607 5606 5604 5602 5600 5598 5597 5595 5594 5592 5590 5588 5587 5585 5583 5581 5579 5577 5576 5575 5573 5572 5573 5572 5570 5571 5570 5566 5564 5563 5559 5556 5554 5551 5550 5550 5547 5545 5546
5689 5687 5684 5682 5679 5677 5675 5672 5670 5667 5665 5663 5661 5659 5657 5654 5652 5651 5649 5646 5644 5642 5640 5638 5636 5633 5632 5630 5628 5626 5623 5620 5618 5617 5615 5614 5613 5613 5613 5612 5610 5608 5607 5605 5604 5602 5600 5598 5596 5594 5592 5590 5588 5586 5584 5583 5581 5578 5577 5575 5573 5571 5570 5568 5567 5565 5563 5562 5562 5561 5561 5561 5560 5557 5555 5553 5549 5546 5544 5543 5541 5540 5538 5536 5536
5682 5679 5676 5674 5672 5669 5667 5665 5662 5660 5657 5655 5653 5651 5649 5647 5645 5643 5641 5639 5636 5634 5632 5630 5628 5625 5624 5622 5620 5618 5615 5612 5610 5608 5606 5605 5603 5602 5603 5602 5601 5600 5598 5596 5595 5593 5592 5590 5588 5586 5584 5581 5578 5576 5574 5573 5571 5569 5567 5565 5563 5562 5560 5559 5557 5555 5553 5552 5550 5551 5552 5550 5548 5548 5546 5541 5538 5536 5535 5534 5532 5529 5527 5526 5526
5674 5672 5669 5666 5663 5661 5659 5657 5654 5652 5649 5647 5645 5643 5641 5639 5637 5635 5633 5631 5628 5626 5624 5622 5620 5617 5615 5614 5612 5610 5607 5604 5602 5600 5598 5596 5594 5593 5592 5592 5591 5590 5589 5587 5586 5584 5582 5580 5579 5578 5575 5572 5570 5567 5565 5563 5561 5559 5558 5555 5554 5552 5550 5548 5547 5545 5543 5541 5539 5541 5542 5539 5536 5537 5535 5530 5527 5526 5525 5523 5521 5518 5517 5516 5516
5667 5664 5661 5658 5655 5653 5651 5649 5646 5644 5641 5639 5637 5634 5632 5630 5628 5626 5625 5622 5620 5618 5616 5614 5612 5609 5607 5605 5604 5602 5598 5595 5593 5590 5588 5587 5585 5584 5583 5582 5581 5581 5579 5578 5576 5574 5573 5570 5569 5568 5565 5563 5560 5557 5554 5552 5549 5548 5548 5546 5545 5543 5541 5539 5537 5534 5532 5530 5528 5529 5530 5527 5524 5524 5523 5519 5516 5516 5513 5512 5510 5507 5506 5505 5505
5659 5656 5653 5650 5647 5645 5643 5641 5638 5636 5633 5631 5629 5626 5623 5621 5619 5618 5616 5614 5611 5609 5607 5605 5602 5600 5598 5596 5594 5593 5590 5586 5583 5581 5579 5576 5575 5574 5573 5572 5571 5570 5569 5568 5565 5564 5563 5560 5559 5558 5555 5553 5550 5545 5542 5539 5537 5538 5537 5535 5534 5533 5532 5531 5527 5524 5522 5519 5517 5517 5517 5516 5513 5512 5510 5507 5506 5504 5501 5499 5499 5496 5494 5494 5493
5650 5647 5644 5642 5639 5636 5634 5632 5630 5628 5625 5623 5621 5618 5615 5613 5610 5608 5607 5605 5602 5600 5598 5596 5593 5591 5589 5586 5584 5584 5581 5577 5574 5571 5569 5566 5564 5563 5562 5561 5561 5559 5558 5557 5554 5553 5552 5549 5547 5546 5545 5543 5538 5533 5531 5526 5525 5526 5525 5523 5522 5521 5522 5522 5516 5514 5512 5508 5505 5505 5504 5504 5502 5500 5498 5496 5494 5492 5488 5487 5488 5485 5482 5481 5482
5640 5638 5635 5632 5630 5627 5625 5622 5620 5618 5615 5613 5611 5609 5606 5604 5602 5599 5598 5596 5594 5591 5589 5587 5584 5581 5579 5577 5575 5573 5572 5568 5564 5561 5559 5555 5553 5552 5550 5550 5549 5548 5547 5546 5544 5542 5540 5538 5536 5533 5533 5532 5527 5522 5519 5515 5514 5515 5512 5509 5508 5510 5512 5509 5503 5502 5501 5496 5494 5494 5492 5491 5490 5488 5486 5484 5481 5478 5475 5477 5477 5472 5470 5470 5471
5631 5629 5626 5623 5621 5618 5616 5613 5610 5608 5606 5603 5601 5599 5597 5594 5592 5590 5588 5586 5584 5582 5580 5578 5576 5573 5570 5568 5565 5562 5561 5558 5553 5550 5548 5544 5541 5540 5539 5537 5537 5536 5535 5534 5533 5531 5528 5526 5524 5521 5520 5519 5516 5511 5508 5504 5502 5503 5501 5497 5495 5499 5500 5493 5486 5487 5487 5483 5483 5483 5480 5479 5477 5474 5474 5472 5468 5464 5462 5464 5463 5459 5458 5460 5458
5622 5619 5617 5614 5612 5609 5607 5604 5601 5599 5596 5594 5592 5589 5587 5584 5582 5580 5578 5576 5574 5572 5570 5567 5566 5563 5560 5557 5554 5551 5549 5547 5543 5539 5536 5533 5529 5527 5526 5525 5523 5522 5523 5522 5521 5519 5517 5514 5512 5509 5507 5505 5503 5499 5496 5492 5489 5488 5488 5485 5484 5486 5485 5477 5472 5472 5470 5468 5470 5469 5467 5468 5466 5462 5461 5459 5456 5452 5449 5449 5448 5446 5446 5447 5445
5612 5609 5607 5604 5602 5599 5597 5595 5592 5590 5587 5585 5582 5580 5577 5574 5572 5569 5567 5565 5563 5561 5559 5556 5554 5552 5549 5546 5543 5540 5537 5534 5532 5528 5524 5520 5517 5513 5511 5510 5508 5507 5509 5510 5508 5506 5504 5502 5500 5497 5493 5491 5489 5486 5483 5480 5476 5474 5474 5472 5471 5470 5467 5462 5459 5458 5454 5453 5454 5453 5453 5455 5454 5451 5450 5447 5444 5440 5436 5434 5433 5432 5431 5432 5431
5602 5599 5597 5594 5592 5589 5587 5584 5582 5579 5577 5574 5572 5570 5567 5564 5561 5559 5556 5554 5552 5549 5547 5544 5542 5541 5538 5534 5531 5529 5525 5522 5519 5516 5512 5508 5504 5500 5497 5495 5492 5490 5491 5494 5494 5491 5489 5488 5486 5483 5478 5475 5474 5471 5468 5466 5462 5460 5460 5459 5456 5453 5449 5446 5445 5443 5440 5438 5437 5436 5438 5440 5439 5438 5437 5435 5433 5429 5424 5421 5420 5417 5416 5417 5416
5592 5589 5587 5584 5581 5578 5576 5573 5571 5568 5566 5563 5561 5559 5556 5553 5550 5547 5544 5542 5540 5538 5535 5532 5529 5528 5526 5523 5519 5515 5512 5509 5506 5503 5499 5495 5491 5487 5482 5480 5477 5473 5471 5475 5477 5475 5472 5471 5470 5468 5464 5460 5458 5455 5453 5451 5447 5445 5444 5442 5440 5437 5432 5429 5428 5427 5424 5421 5420 5420 5423 5424 5423 5422 5422 5421 5419 5416 5412 5409 5407 5404 5401 5402 5402
5581 5578 5575 5573 5570 5567 5564 5561 5559 5556 5554 5551 5549 5546 5544 5541 5538 5535 5532 5529 5527 5525 5522 5519 5516 5514 5513 5510 5507 5503 5498 5495 5492 5488 5484 5480 5476 5472 5468 5464 5461 5457 5454 5455 5457 5457 5456 5454 5453 5451 5448 5445 5442 5439 5437 5435 5433 5429 5426 5424 5422 5419 5415 5412 5411 5409 5406 5404 5404 5404 5406 5408 5406 5404 5404 5403 5401 5400 5398 5396 5395 5393 5390 5389 5388
5569 5566 5564 5561 5558 5555 5552 5549 5545 5543 5540 5537 5535 5533 5530 5527 5524 5521 5518 5515 5512 5510 5508 5505 5502 5499 5497 5495 5493 5490 5485 5480 5476 5473 5468 5464 5460 5456 5452 5448 5444 5440 5436 5435 5436 5436 5436 5436 5436 5435 5433 5430 5426 5422 5420 5420 5418 5413 5409 5407 5404 5400 5397 5394 5393 5390 5387 5386 5387 5387 5389 5391 5389 5386 5385 5384 5382 5382 5383 5382 5382 5381 5379 5376 5375
5557 5554 5551 5548 5545 5542 5539 5536 5533 5530 5526 5523 5521 5518 5515 5512 5510 5507 5503 5499 5496 5494 5491 5489 5486 5483 5480 5478 5477 5474 5471 5466 5460 5455 5450 5446 5442 5439 5435 5431 5427 5422 5417 5415 5414 5413 5413 5414 5416 5416 5415 5413 5409 5404 5401 5401 5400 5396 5393 5390 5386 5381 5379 5376 5373 5370 5368 5369 5370 5370 5371 5373 5370 5367 5366 5365 5364 5366 5367 5366 5367 5368 5366 5363 5361
5544 5541 5538 5535 5532 5528 5525 5522 5519 5516 5513 5509 5506 5504 5501 5497 5494 5492 5489 5484 5480 5478 5475 5471 5468 5465 5461 5460 5459 5457 5454 5450 5444 5437 5431 5427 5423 5420 5416 5413 5409 5404 5399 5396 5393 5390 5389 5392 5395 5396 5395 5393 5391 5387 5383 5380 5378 5376 5374 5371 5367 5362 5360 5357 5354 5351 5350 5351 5352 5352 5353 5353 5351 5349 5349 5347 5347 5349 5351 5349 5350 5353 5353 5349 5346
5529 5526 5523 5520 5516 5513 5510 5506 5503 5500 5497 5494 5490 5487 5485 5481 5478 5476 5472 5465 5460 5460 5459 5455 5450 5444 5439 5439 5438 5436 5435 5433 5427 5417 5410 5406 5403 5399 5395 5392 5387 5383 5379 5375 5371 5367 5367 5369 5372 5374 5373 5371 5368 5366 5363 5360 5357 5354 5352 5350 5347 5343 5340 5337 5335 5333 5333 5334 5333 5333 5334 5334 5333 5332 5332 5330 5330 5334 5335 5333 5333 5337 5338 5333 5330
5514 5510 5507 5504 5500 5496 5494 5490 5486 5482 5479 5476 5473 5469 5466 5462 5458 5457 5456 5449 5440 5434 5434 5434 5431 5424 5416 5413 5412 5410 5411 5413 5410 5400 5391 5385 5380 5376 5373 5370 5365 5360 5357 5352 5345 5340 5341 5345 5347 5349 5348 5347 5345 5343 5342 5340 5337 5334 5331 5329 5327 5323 5321 5318 5317 5316 5317 5316 5314 5314 5316 5317 5316 5317 5316 5313 5315 5319 5319 5316 5317 5320 5320 5316 5315
5499 5495 5490 5487 5483 5480 5477 5474 5470 5465 5462 5458 5456 5454 5453 5449 5442 5436 5434 5434 5429 5420 5412 5408 5407 5404 5397 5393 5391 5386 5383 5384 5386 5383 5376 5369 5361 5354 5349 5347 5344 5340 5337 5331 5322 5317 5317 5319 5321 5323 5323 5322 5320 5320 5320 5319 5316 5313 5312 5311 5307 5304 5302 5300 5299 5299 5299 5297 5295 5295 5298 5299 5300 5301 5299 5297 5299 5302 5302 5300 5300 5302 5302 5301 5301
5483 5479 5475 5470 5467 5464 5461 5457 5454 5450 5445 5441 5436 5434 5434 5435 5433 5425 5415 5409 5408 5408 5403 5395 5387 5379 5373 5369 5368 5366 5362 5358 5356 5355 5353 5349 5344 5337 5329 5324 5320 5317 5314 5308 5299 5295 5295 5294 5293 5294 5295 5295 5295 5295 5294 5293 5291 5290 5290 5290 5289 5287 5284 5282 5282 5281 5278 5276 5276 5277 5279 5281 5283 5284 5284 5282 5283 5285 5286 5285 5284 5285 5286 5286 5287
5466 5462 5458 5454 5451 5447 5443 5439 5435 5431 5427 5423 5419 5414 5410 5410 5413 5415 5409 5397 5387 5383 5383 5382 5377 5367 5357 5348 5341 5338 5339 5339 5335 5332 5328 5324 5320 5316 5311 5306 5301 5297 5292 5284 5274 5271 5272 5270 5266 5266 5266 5266 5267 5268 5267 5266 5265 5264 5263 5263 5264 5265 5265 5264 5264 5262 5258 5256 5258 5259 5260 5263 5265 5266 5267 5268 5268 5269 5269 5269 5268 5269 5271 5271 5272
5448 5444 5440 5436 5433 5430 5425 5420 5416 5413 5409 5404 5400 5396 5390 5385 5383 5386 5389 5388 5380 5368 5360 5356 5352 5348 5343 5336 5325 5314 5310 5310 5310 5309 5307 5303 5297 5292 5287 5285 5284 5281 5274 5264 5254 5249 5249 5246 5243 5241 5240 5239 5239 5239 5239 5238 5238 5237 5236 5236 5237 5239 5241 5242 5244 5242 5240 5239 5240 5240 5241 5244 5246 5247 5249 5252 5252 5252 5253 5254 5254 5254 5255 5256 5257
5432 5427 5422 5416 5412 5409 5405 5400 5395 5391 5387 5382 5377 5373 5368 5363 5357 5353 5352 5354 5356 5354 5347 5338 5328 5319 5314 5311 5306 5298 5290 5285 5281 5279 5278 5276 5274 5270 5264 5261 5262 5262 5256 5246 5236 5229 5225 5223 5220 5218 5216 5215 5214 5213 5211 5211 5212 5211 5210 5210 5210 5211 5214 5217 5219 5219 5219 5220 5220 5220 5222 5225 5226 5227 5229 5233 5235 5235 5237 5239 5239 5238 5238 5241 5244
5415 5410 5404 5398 5392 5388 5384 5379 5374 5369 5365 5360 5355 5350 5344 5338 5333 5328 5323 5319 5318 5320 5321 5320 5314 5304 5292 5283 5276 5271 5267 5263 5259 5255 5251 5246 5242 5239 5236 5236 5237 5236 5232 5226 5217 5208 5202 5198 5194 5192 5191 5189 5188 5187 5186 5186 5186 5185 5183 5183 5184 5186 5189 5194 5196 5196 5196 5196 5197 5198 5201 5203 5206 5208 5209 5212 5215 5218 5220 5223 5225 5224 5224 5226 5228
5398 5392 5387 5380 5374 5368 5363 5358 5353 5347 5342 5336 5331 5326 5321 5315 5309 5303 5298 5294 5290 5286 5287 5289 5289 5286 5279 5268 5255 5244 5238 5236 5233 5230 5227 5222 5215 5207 5203 5202 5202 5202 5201 5199 5194 5186 5179 5174 5169 5166 5164 5163 5162 5162 5162 5161 5160 5158 5157 5157 5159 5162 5165 5169 5171 5172 5172 5173 5174 5177 5180 5182 5184 5188 5189 5190 5194 5198 5202 5206 5209 5210 5210 5211 5213
5379 5373 5367 5361 5354 5349 5343 5337 5331 5324 5318 5313 5307 5301 5296 5291 5285 5278 5273 5269 5264 5259 5257 5257 5256 5256 5255 5250 5240 5227 5218 5213 5208 5202 5198 5194 5190 5183 5176 5170 5166 5163 5162 5162 5160 5156 5153 5150 5145 5140 5136 5134 5133 5134 5134 5134 5133 5132 5131 5132 5134 5136 5139 5142 5145 5147 5148 5150 5153 5156 5158 5159 5162 5166 5168 5170 5173 5178 5183 5187 5191 5194 5196 5197 5199
5360 5353 5346 5338 5332 5327 5322 5316 5310 5304 5298 5291 5285 5279 5273 5268 5262 5256 5250 5244 5239 5234 5229 5227 5225 5223 5220 5217 5213 5205 5197 5192 5188 5180 5170 5163 5159 5156 5151 5145 5139 5133 5127 5124 5123 5121 5120 5121 5120 5115 5110 5106 5103 5101 5100 5101 5103 5104 5105 5105 5107 5109 5112 5116 5120 5122 5123 5126 5130 5133 5134 5135 5138 5142 5146 5149 5152 5157 5163 5167 5171 5175 5179 5182 5183
5342 5335 5327 5318 5312 5306 5301 5295 5288 5283 5277 5271 5265 5259 5252 5246 5241 5235 5228 5222 5217 5211 5205 5200 5197 5194 5189 5183 5178 5172 5167 5165 5162 5155 5145 5136 5129 5124 5119 5115 5111 5107 5101 5095 5091 5089 5087 5088 5090 5089 5085 5080 5075 5071 5069 5069 5071 5074 5076 5077 5078 5081 5085 5089 5092 5094 5096 5100 5104 5108 5110 5111 5114 5117 5121 5125 5129 5135 5141 5146 5150 5155 5160 5164 5167
5321 5316 5309 5301 5294 5287 5282 5275 5268 5261 5255 5249 5243 5237 5231 5225 5219 5213 5206 5200 5193 5187 5182 5176 5171 5167 5161 5155 5147 5139 5134 5133 5131 5126 5119 5112 5105 5098 5091 5084 5080 5079 5076 5070 5065 5061 5059 5059 5060 5059 5056 5052 5049 5047 5046 5044 5042 5042 5045 5047 5049 5052 5057 5060 5062 5064 5067 5072 5077 5080 5083 5087 5091 5093 5096 5099 5105 5111 5117 5123 5128 5133 5138 5144 5149
5302 5296 5290 5284 5276 5269 5263 5257 5250 5243 5236 5229 5222 5215 5208 5202 5196 5190 5184 5178 5171 5164 5158 5153 5147 5141 5136 5130 5123 5115 5108 5103 5100 5097 5092 5087 5081 5075 5069 5061 5054 5050 5048 5045 5040 5036 5033 5032 5032 5030 5028 5025 5023 5022 5021 5020 5017 5015 5016 5018 5020 5023 5026 5031 5034 5037 5040 5044 5049 5053 5057 5061 5066 5069 5071 5075 5080 5086 5092 5099 5106 5111 5116 5122 5128
5282 5277 5271 5265 5259 5252 5245 5239 5232 5225 5218 5211 5204 5196 5187 5180 5174 5168 5161 5155 5149 5142 5136 5131 5126 5120 5115 5108 5101 5095 5088 5082 5076 5072 5068 5064 5059 5055 5049 5042 5034 5028 5023 5019 5015 5011 5008 5006 5006 5004 5002 5000 4998 4997 4996 4995 4994 4992 4991 4991 4992 4994 4998 5003 5008 5012 5014 5017 5022 5026 5030 5035 5040 5044 5048 5052 5058 5063 5069 5076 5083 5090 5095 5100 5106
5263 5258 5252 5246 5240 5233 5227 5220 5213 5206 5199 5191 5185 5177 5169 5161 5154 5147 5140 5134 5128 5121 5115 5110 5106 5101 5096 5090 5082 5076 5070 5064 5057 5052 5047 5043 5039 5035 5031 5025 5019 5012 5006 5000 4994 4989 4985 4983 4982 4981 4979 4977 4976 4975 4974 4973 4972 4971 4969 4968 4968 4969 4972 4977 4981 4986 4989 4991 4995 5000 5005 5010 5016 5021 5026 5031 5037 5042 5048 5055 5064 5071 5076 5081 5086
5245 5239 5233 5227 5221 5214 5207 5200 5193 5185 5179 5172 5165 5158 5150 5143 5136 5129 5122 5116 5109 5103 5096 5091 5086 5082 5078 5072 5066 5060 5054 5047 5040 5035 5029 5025 5021 5017 5013 5009 5004 4998 4992 4986 4979 4972 4967 4963 4961 4960 4959 4957 4956 4954 4954 4953 4951 4950 4950 4949 4948 4949 4951 4954 4957 4960 4963 4966 4970 4976 4982 4989 4995 5000 5006 5012 5017 5023 5029 5037 5045 5053 5059 5065 5071
5226 5220 5213 5207 5201 5194 5187 5181 5174 5166 5160 5154 5148 5141 5133 5126 5119 5112 5106 5099 5093 5088 5082 5076 5070 5065 5060 5056 5051 5045 5039 5032 5026 5019 5013 5009 5004 5000 4997 4993 4989 4984 4978 4973 4967 4960 4954 4948 4944 4942 4941 4940 4939 4937 4936 4935 4933 4932 4931 4930 4929 4930 4933 4935 4937 4938 4941 4944 4948 4954 4961 4968 4974 4981 4987 4993 4999 5005 5012 5020 5028 5035 5043 5050 5058
5207 5201 5194 5187 5182 5175 5169 5163 5156 5150 5143 5136 5130 5125 5119 5112 5105 5098 5091 5084 5078 5073 5068 5063 5057 5051 5045 5041 5036 5031 5025 5020 5013 5007 5001 4995 4991 4987 4983 4979 4976 4971 4966 4960 4955 4950 4944 4937 4932 4929 4927 4926 4924 4923 4921 4919 4917 4916 4915 4913 4912 4913 4915 4916 4918 4920 4923 4926 4929 4934 4940 4947 4955 4962 4970 4977 4982 4988 4995 5003 5011 5019 5026 5035 5043
5190 5185 5178 5171 5165 5159 5153 5146 5139 5133 5128 5121 5115 5110 5104 5099 5093 5086 5079 5072 5066 5060 5055 5050 5044 5039 5033 5028 5023 5018 5013 5008 5002 4996 4990 4985 4980 4976 4971 4968 4964 4961 4956 4950 4945 4940 4935 4929 4924 4920 4916 4914 4913 4911 4908 4906 4904 4903 4902 4900 4898 4898 4898 4899 4901 4903 4907 4909 4912 4916 4922 4928 4936 4944 4953 4961 4967 4973 4980 4988 4996 5003 5011 5019 5027
5175 5169 5162 5156 5149 5143 5138 5132 5126 5120 5114 5109 5103 5097 5092 5086 5081 5075 5069 5062 5055 5049 5044 5038 5033 5028 5023 5018 5013 5008 5002 4997 4992 4987 4982 4976 4971 4966 4962 4958 4955 4951 4948 4943 4938 4933 4927 4922 4917 4912 4908 4905 4903 4901 4898 4896 4893 4892 4890 4888 4887 4886 4885 4886 4887 4890 4892 4894 4896 4900 4906 4912 4918 4927 4936 4945 4953 4960 4967 4974 4982 4989 4997 5004 5012
5159 5154 5148 5142 5136 5130 5124 5119 5114 5109 5103 5098 5092 5087 5081 5075 5070 5064 5058 5052 5046 5039 5033 5028 5023 5018 5013 5009 5004 4999 4994 4989 4985 4980 4975 4970 4965 4960 4955 4951 4948 4944 4940 4936 4932 4927 4922 4916 4911 4907 4903 4899 4896 4893 4891 4888 4885 4882 4880 4878 4877 4876 4875 4875 4876 4878 4879 4881 4883 4887 4891 4897 4904 4911 4920 4930 4940 4948 4954 4961 4969 4976 4984 4991 4998
5146 5140 5135 5129 5124 5119 5114 5108 5103 5098 5093 5088 5082 5077 5071 5066 5060 5054 5049 5043 5037 5031 5025 5019 5014 5010 5006 5001 4997 4993 4988 4983 4978 4974 4969 4964 4960 4954 4950 4946 4942 4938 4934 4930 4926 4922 4917 4912 4907 4903 4899 4895 4891 4888 4885 4882 4879 4876 4873 4871 4870 4869 4868 4867 4867 4868 4870 4871 4873 4876 4879 4885 4891 4898 4905 4915 4926 4936 4944 4950 4957 4964 4971 4978 4986
5135 5130 5124 5119 5114 5109 5104 5099 5094 5089 5084 5078 5073 5068 5062 5057 5051 5045 5040 5034 5029 5023 5018 5012 5007 5003 4998 4994 4990 4986 4982 4977 4973 4968 4964 4959 4954 4949 4944 4940 4936 4932 4928 4924 4921 4917 4912 4908 4904 4900 4896 4892 4888 4885 4881 4878 4875 4872 4869 4867 4865 4864 4863 4862 4861 4862 4862 4863 4865 4867 4871 4875 4881 4887 4894 4903 4914 4924 4933 4940 4946 4952 4959 4966 4974